This demonstration page uses our WeatherBlox Daily Observations layout. Learn more.

Left ArrowRight Arrow

Hourly Observations for April 5, 2018

Temp ( °F °C ) Dew Point ( °F °C ) Humidity (%) Winds ( mph kmh ) Pressure ( in mb ) Visibility ( mi km ) Precip ( " mm )
12:56 am 00:56 Cloudy 36 2.2 25 -3.9 64 64 ESE 7 11 30.01 1016 10 16 0.00 0.00
1:56 am 01:56 Clear 33 0.6 24 -4.4 70 70 NNE 9 15 30.03 1017 10 16 0.00 0.00
2:56 am 02:56 Clear 29 -1.7 24 -4.4 82 82 ENE 7 11 30.01 1016 10 16 0.00 0.00
3:56 am 03:56 Clear 29 -1.7 24 -4.4 82 82 E 6 9 29.98 1015 10 16 0.00 0.00
4:56 am 04:56 Clear 30 -1.1 24 -4.4 79 79 N 7 11 30.00 1016 10 16 0.00 0.00
5:56 am 05:56 Clear 28 -2.2 23 -5 81 81 N 10 17 30.01 1016 10 16 0.00 0.00
6:56 am 06:56 Clear 28 -2.2 24 -4.4 85 85 N 10 17 30.03 1017 10 16 0.00 0.00
7:56 am 07:56 Sunny 29 -1.7 24 -4.4 82 82 N 14 22 30.02 1017 10 16 0.00 0.00
8:56 am 08:56 Sunny 34 1.1 25 -3.9 70 70 NNE 13 20 30.04 1017 10 16 0.00 0.00
9:56 am 09:56 Sunny 39 3.9 26 -3.3 60 60 NE 9 15 30.03 1017 10 16 0.00 0.00
10:56 am 10:56 Sunny 45 7.2 27 -2.8 49 49 NNE 12 19 30.03 1017 10 16 0.00 0.00
11:56 am 11:56 Sunny 51 10.6 28 -2.2 41 41 NE 8 13 30.02 1017 10 16 0.00 0.00
12:56 pm 12:56 Sunny 54 12.2 26 -3.3 34 34 NE 12 19 30.01 1016 10 16 0.00 0.00
1:56 pm 13:56 Sunny 57 13.9 27 -2.8 32 32 ENE 13 20 29.99 1016 10 16 0.00 0.00
2:56 pm 14:56 Sunny 59 15 29 -1.7 32 32 NE 13 20 29.99 1016 10 16 0.00 0.00
3:56 pm 15:56 Sunny 59 15 28 -2.2 31 31 NNE 8 13 29.99 1016 10 16 0.00 0.00
4:56 pm 16:56 Sunny 60 15.6 30 -1.1 32 32 NNE 13 20 29.98 1015 10 16 0.00 0.00
5:56 pm 17:56 Sunny 58 14.4 30 -1.1 35 35 NNE 10 17 29.98 1015 10 16 0.00 0.00
6:56 pm 18:56 Sunny 55 12.8 30 -1.1 38 38 NE 16 26 30.00 1016 10 16 0.00 0.00
7:56 pm 19:56 Mostly Sunny 49 9.4 30 -1.1 48 48 NE 15 24 30.01 1016 10 16 0.00 0.00
8:56 pm 20:56 Cloudy 46 7.8 31 -0.6 56 56 NE 13 20 30.04 1017 10 16 0.00 0.00
9:56 pm 21:56 Cloudy 44 6.7 30 -1.1 58 58 NE 12 19 30.05 1018 10 16 0.00 0.00
10:56 pm 22:56 Cloudy 44 6.7 30 -1.1 58 58 NE 14 22 30.06 1018 10 16 0.00 0.00
11:56 pm 23:56 Cloudy 42 5.6 30 -1.1 62 62 NE 15 24 30.05 1018 10 16 0.00 0.00

Powered by AerisWeather